Tracking 22458 objects as of 2-Mar-2021
HD Live streaming from Space Station
objects crossing your sky now

ISO

Track ISO now!
ISO is classified as:


NORAD ID: 23715
Int'l Code: 1995-062A
Perigee: 702.3 km
Apogee: 69,922.9 km
Inclination: 1.1 °
Period: 1,411.6 minutes
Semi major axis: 41683 km
RCS: 3.9811 m2 (large)
Launch date: November 17, 1995
Source: European Space Agency (ESA)
Launch site: FRENCH GUIANA (FRGUI)
aabbcc
Your satellite tracking list
Your tracking list is empty




NASA's NSSDC Master Catalog

Two Line Element Set (TLE):
1 23715U 95062A   21059.87089570 -.00000237  00000-0  10706-1 0  9999
2 23715   1.1033 121.6819 8303102 249.5640  13.8601  1.02012970 93949
Source of the keplerian elements: AFSPC